Home   Weather   Hadera   Past weeks

Flag for Israel Past Weather in Hadera, Israel — Yesterday and Last 2 Weeks

Now
79 °F

Passing clouds.


Feels Like: 81 °F
Forecast: 77 / 88 °F
Wind: 3 mph from North

Location: Dov Airport

Current Time: Jul 23, 2017 at 8:05:37 am

Latest Report: Jul 23, 2017 at 6:50 am


Visibility: N/A

Pressure: 29.80 "Hg

Humidity: 70%

Dew Point: 68 °F

Location of HaderaLocation

Past Weather in Hadera — Graph

°F

Hadera Temperature Yesterday

Maximum temperature yesterday: 86 °F (at 10:50 am)
Minimum temperature yesterday: 79 °F (at 6:00 am)
Average temperature yesterday: 84 °F

High & Low Weather Summary for the Past Weeks

 TemperatureHumidityPressure
High90 °F (Jul 19, 1:50 pm)89% (Jul 13, 4:50 am)29.86 "Hg (Jul 13, 4:50 am)
Low77 °F (Jul 9, 4:50 am)55% (Jul 21, 2:50 pm)29.59 "Hg (Jul 13, 4:50 pm)
Average84 °F70%29.73 "Hg
* Reported Jul 8 5:00 am — Jul 23 5:50 am, Hadera. Weather by CustomWeather, © 2017

Note: Actual official high and low records may vary slightly from our data, if they occured in-between our weather recording intervals... More about our weather records

Advertising

Hadera Weather History for the Previous 24 Hours

Scroll right to see more
 ConditionsComfort  
Time TempWeatherWind HumidityBarometerVisibility
5:50 am
Sun, Jul 23
79 °FScattered clouds.3 mph65%29.80 "HgN/A
4:50 am81 °FPassing clouds.6 mph62%29.77 "HgN/A
4:30 am81 °FPassing clouds.6 mph66%29.77 "HgN/A
10:50 pm
Sat, Jul 22
81 °FPassing clouds.3 mph70%29.83 "HgN/A
9:50 pm81 °FPassing clouds.5 mph70%29.83 "HgN/A
8:50 pm82 °FPassing clouds.6 mph62%29.80 "HgN/A
7:50 pm82 °FPassing clouds.7 mph66%29.80 "HgN/A
6:50 pm84 °FSunny.6 mph62%29.80 "Hg10 mi
5:50 pm84 °FSunny.8 mph62%29.77 "Hg10 mi
4:50 pm86 °FSunny.9 mph59%29.80 "Hg10 mi
3:50 pm86 °FSunny.12 mph59%29.80 "Hg10 mi
2:50 pm86 °FSunny.13 mph59%29.80 "Hg10 mi
1:50 pm86 °FPassing clouds.12 mph59%29.80 "HgN/A
12:50 pm86 °FPassing clouds.12 mph62%29.80 "HgN/A
11:50 am86 °FPassing clouds.12 mph62%29.80 "HgN/A
10:50 am86 °FPassing clouds.10 mph59%29.80 "HgN/A
9:50 am84 °FPassing clouds.9 mph62%29.80 "HgN/A
8:50 am82 °FScattered clouds.7 mph66%29.80 "HgN/A
Weather by CustomWeather, © 2017

See weather overviewHow to use our weather pages